Location: *
(46.1333°S, 161.2167°W)
Time: 04:21:02
(UTC+00:00)

NOSS 2-3 (C) - Pass Details

Date: 15 July 2020
Orbit: 581 x 1631 km, 63.4° (Epoch: 05 June)

Event Time Altitude Azimuth Distance (km) Brightness Sun altitude
Exits shadow 15:51:02 52° 228° (SW) 1,214 4.6 -25.4°
Maximum altitude 15:52:43 81° 305° (NW) 957 4.3 -25.1°
Drops below altitude 10° 15:58:08 10° 32° (NNE) 2,342 7.0 -24.2°
Sets 16:00:14 0° 33° (NNE) 3,152 7.7 -23.9°
